Location: Babice
(50.3480°N, 22.9363°E)
Time: 12:27:55
(UTC+00:00)

Cosmos 2082 Rocket - Pass Details

Date: 14 July 2020
Orbit: 833 x 853 km, 71.0° (Epoch: 07 August)

Event Time Altitude Azimuth Distance (km) Brightness Sun altitude
Exits shadow 00:40:49 13° 181° (S) 2,244 3.9 -12.8°
Maximum altitude 00:45:36 48° 111° (ESE) 1,099 2.9 -12.4°
Drops below altitude 10° 00:51:05 10° 38° (NE) 2,489 6.2 -11.9°
Sets 00:53:36 0° 33° (NNE) 3,427 7.6 -11.7°
